This is the latest recevied weather packets stored in our database for station/object KG4YZY-1. If no packets are shown the sender has not sent any weather packets the latest 1 day(s).
| Time | Temp. | Humidity | Pressure | Rain* | Wind** | Luminosity | Snow |
|---|---|---|---|---|---|---|---|
| 1777998603 | 30° C | 53% | 1017.9 hPa | 0 mm | 0.45 m/s, 108° | - | - |
| 1777998303 | 29.44° C | 52% | 1017.9 hPa | 0 mm | 1.34 m/s, 115° | - | - |
| 1777998003 | 29.44° C | 54% | 1017.8 hPa | 0 mm | 0.89 m/s, 127° | - | - |
| 1777997703 | 29.44° C | 53% | 1017.9 hPa | 0 mm | 1.34 m/s, 104° | - | - |
| 1777997404 | 28.89° C | 53% | 1017.9 hPa | 0 mm | 1.34 m/s, 126° | - | - |
| 1777997104 | 28.89° C | 55% | 1017.9 hPa | 0 mm | 0.45 m/s, 142° | - | - |
| 1777996804 | 28.89° C | 56% | 1018 hPa | 0 mm | 0 m/s | - | - |
| 1777996503 | 28.89° C | 56% | 1018 hPa | 0 mm | 1.79 m/s, 134° | - | - |
| 1777996203 | 28.89° C | 56% | 1017.9 hPa | 0 mm | 0.89 m/s, 103° | - | - |
| 1777995904 | 28.33° C | 57% | 1017.9 hPa | 0 mm | 0.89 m/s, 147° | - | - |
| 1777995603 | 28.33° C | 58% | 1017.8 hPa | 0 mm | 0.45 m/s, 125° | - | - |
| 1777995303 | 28.33° C | 58% | 1017.9 hPa | 0 mm | 0.45 m/s, 107° | - | - |
| 1777995003 | 27.78° C | 60% | 1017.9 hPa | 0 mm | 0 m/s | - | - |
| 1777994703 | 27.22° C | 61% | 1017.9 hPa | 0 mm | 0.89 m/s, 117° | - | - |
| 1777994404 | 27.22° C | 61% | 1017.9 hPa | 0 mm | 0.89 m/s, 121° | - | - |
| 1777994104 | 26.67° C | 61% | 1018 hPa | 0 mm | 0.89 m/s, 129° | - | - |
| 1777993803 | 26.67° C | 62% | 1017.9 hPa | 0 mm | 0.89 m/s, 116° | - | - |
| 1777993503 | 26.67° C | 62% | 1017.8 hPa | 0 mm | 2.24 m/s, 118° | - | - |
| 1777993203 | 26.67° C | 63% | 1017.9 hPa | 0 mm | 1.34 m/s, 121° | - | - |
| 1777992904 | 26.11° C | 64% | 1017.9 hPa | 0 mm | 0.45 m/s, 122° | - | - |
| 1777992604 | 26.11° C | 66% | 1017.9 hPa | 0 mm | 0.89 m/s, 126° | - | - |
| 1777992303 | 25.56° C | 67% | 1017.9 hPa | 0 mm | 0.89 m/s, 140° | - | - |
| 1777992004 | 25.56° C | 68% | 1017.9 hPa | 0 mm | 0.89 m/s, 130° | - | - |
| 1777991704 | 25° C | 68% | 1017.9 hPa | 0 mm | 2.68 m/s, 121° | - | - |
| 1777991403 | 25° C | 69% | 1018 hPa | 0 mm | 1.34 m/s, 139° | - | - |
* Rain latest hour (hover to see other rain measurements)
** Current wind speed in m/s (hover to see current wind gust speed)